| time (UTC) | temp F | wind direction | speed MPH | gust MPH | rain 1hr in | rain 24hr in | rain mn in | humidity % | barometer mb |
| 20260508032005 | 40 | 287 | 0.0 | 0.0 | 0.00 | 0.06 | 0.06 | 97 | 992.1 |
| 20260508031004 | 40 | 287 | 0.0 | 0.0 | 0.00 | 0.06 | 0.06 | 97 | 992.0 |
| 20260508025004 | 41 | 287 | 0.0 | 0.0 | 0.00 | 0.06 | 0.06 | 96 | 992.1 |
| 20260508024005 | 42 | 287 | 0.0 | 0.0 | 0.01 | 0.06 | 0.06 | 96 | 992.0 |
| 20260508023005 | 42 | 287 | 0.0 | 0.0 | 0.02 | 0.06 | 0.06 | 95 | 991.9 |
| 20260508022004 | 42 | 287 | 0.0 | 0.0 | 0.02 | 0.06 | 0.06 | 95 | 991.8 |
| 20260508021005 | 42 | 287 | 0.0 | 1.0 | 0.03 | 0.06 | 0.06 | 95 | 991.8 |
| 20260508015005 | 43 | 284 | 0.0 | 5.0 | 0.06 | 0.06 | 0.06 | 95 | 992.0 |
| 20260508014005 | 43 | 240 | 2.0 | 6.0 | 0.05 | 0.05 | 0.05 | 94 | 992.1 |
| 20260508013005 | 43 | 279 | 1.0 | 5.0 | 0.04 | 0.04 | 0.04 | 94 | 992.0 |
| 20260508012004 | 43 | 279 | 1.0 | 8.0 | 0.04 | 0.04 | 0.04 | 92 | 991.7 |
| 20260508011004 | 43 | 235 | 3.0 | 8.0 | 0.03 | 0.03 | 0.03 | 90 | 991.9 |
| 20260508010004 | 44 | 244 | 3.0 | 10.0 | 0.01 | 0.01 | 0.01 | 89 | 991.6 |
| 20260508004005 | 46 | 275 | 1.0 | 3.0 | 0.00 | 0.00 | 0.00 | 80 | 991.3 |
| 20260508003005 | 46 | 255 | 2.0 | 6.0 | 0.00 | 0.00 | 0.00 | 77 | 990.9 |
| 20260508002004 | 45 | 276 | 1.0 | 3.0 | 0.00 | 0.00 | 0.00 | 81 | 990.8 |
| 20260508001004 | 44 | 242 | 3.0 | 6.0 | 0.00 | 0.00 | 0.00 | 83 | 990.8 |
| 20260508000005 | 44 | 277 | 1.0 | 7.0 | 0.00 | 0.00 | 0.00 | 83 | 991.1 |
| 20260507235004 | 46 | 265 | 5.0 | 8.0 | 0.00 | 0.00 | 0.00 | 78 | 991.3 |
| 20260507233004 | 49 | 226 | 6.0 | 13.0 | 0.00 | 0.00 | 0.00 | 67 | 990.9 |
| 20260507232005 | 50 | 263 | 2.0 | 3.0 | 0.00 | 0.00 | 0.00 | 62 | 990.5 |
| 20260507230006 | 50 | 263 | 1.0 | 3.0 | 0.00 | 0.00 | 0.00 | 61 | 990.4 |
| 20260507225005 | 50 | 278 | 1.0 | 3.0 | 0.00 | 0.00 | 0.00 | 61 | 990.4 |
| 20260507224005 | 51 | 276 | 1.0 | 6.0 | 0.00 | 0.00 | 0.00 | 61 | 990.1 |
| 20260507223004 | 51 | 275 | 1.0 | 3.0 | 0.00 | 0.00 | 0.00 | 60 | 990.3 |
| 20260507222004 | 52 | 261 | 1.0 | 3.0 | 0.00 | 0.00 | 0.00 | 60 | 990.4 |
| 20260507221004 | 52 | 274 | 1.0 | 3.0 | 0.00 | 0.00 | 0.00 | 59 | 990.3 |
| 20260507220004 | 52 | 265 | 2.0 | 5.0 | 0.00 | 0.00 | 0.00 | 58 | 990.3 |
| 20260507215004 | 52 | 275 | 1.0 | 5.0 | 0.00 | 0.00 | 0.00 | 59 | 990.2 |
| 20260507213004 | 54 | 252 | 2.0 | 3.0 | 0.00 | 0.00 | 0.00 | 55 | 990.3 |
| 20260507212004 | 53 | 290 | 0.0 | 5.0 | 0.00 | 0.00 | 0.00 | 60 | 990.3 |
| 20260507210005 | 50 | 255 | 3.0 | 5.0 | 0.00 | 0.00 | 0.00 | 62 | 990.4 |
| 20260507205004 | 50 | 290 | 1.0 | 6.0 | 0.00 | 0.00 | 0.00 | 65 | 990.3 |
| 20260507204005 | 50 | 268 | 1.0 | 6.0 | 0.00 | 0.00 | 0.00 | 65 | 990.6 |
| 20260507203005 | 50 | 275 | 1.0 | 5.0 | 0.00 | 0.00 | 0.00 | 66 | 990.5 |
| 20260507202005 | 50 | 283 | 2.0 | 7.0 | 0.00 | 0.00 | 0.00 | 65 | 990.6 |
| 20260507200004 | 50 | 253 | 3.0 | 9.0 | 0.00 | 0.00 | 0.00 | 62 | 990.6 |
| 20260507195004 | 52 | 279 | 2.0 | 5.0 | 0.00 | 0.00 | 0.00 | 57 | 990.8 |
| 20260507194006 | 52 | 211 | 3.0 | 7.0 | 0.00 | 0.00 | 0.00 | 55 | 991.0 |
| 20260507193004 | 54 | 272 | 1.0 | 8.0 | 0.00 | 0.00 | 0.00 | 55 | 990.8 |
| 20260507192004 | 54 | 287 | 1.0 | 6.0 | 0.00 | 0.00 | 0.00 | 55 | 991.0 |
| 20260507185004 | 50 | 269 | 2.0 | 8.0 | 0.00 | 0.00 | 0.00 | 60 | 990.9 |
| 20260507184003 | 50 | 272 | 1.0 | 5.0 | 0.00 | 0.00 | 0.00 | 61 | 991.1 |
| 20260507181004 | 51 | 284 | 3.0 | 6.0 | 0.00 | 0.00 | 0.00 | 59 | 991.2 |
| 20260507180004 | 51 | 282 | 1.0 | 3.0 | 0.00 | 0.00 | 0.00 | 56 | 991.0 |
| 20260507175006 | 51 | 279 | 1.0 | 2.0 | 0.00 | 0.00 | 0.00 | 56 | 990.9 |
| 20260507174004 | 51 | 286 | 1.0 | 3.0 | 0.00 | 0.00 | 0.00 | 55 | 991.1 |
| 20260507173004 | 51 | 287 | 1.0 | 5.0 | 0.00 | 0.00 | 0.00 | 55 | 991.0 |
| 20260507172004 | 53 | 289 | 1.0 | 3.0 | 0.00 | 0.00 | 0.00 | 53 | 991.1 |
| 20260507170004 | 54 | 240 | 3.0 | 5.0 | 0.00 | 0.00 | 0.00 | 51 | 991.1 |
| 20260507165007 | 53 | 288 | 1.0 | 3.0 | 0.00 | 0.00 | 0.00 | 51 | 991.2 |
| 20260507162005 | 56 | 255 | 2.0 | 6.0 | 0.00 | 0.00 | 0.00 | 49 | 991.5 |
| 20260507161004 | 55 | 255 | 2.0 | 5.0 | 0.00 | 0.00 | 0.00 | 49 | 991.7 |
| 20260507160004 | 53 | 323 | 1.0 | 9.0 | 0.00 | 0.00 | 0.00 | 49 | 991.7 |
| 20260507155005 | 53 | 254 | 3.0 | 7.0 | 0.00 | 0.00 | 0.00 | 53 | 991.8 |
| 20260507153005 | 52 | 247 | 3.0 | 9.0 | 0.00 | 0.00 | 0.00 | 53 | 992.0 |
| 20260507152004 | 52 | 6 | 1.0 | 8.0 | 0.00 | 0.00 | 0.00 | 56 | 992.2 |
| 20260507151004 | 51 | 237 | 4.0 | 8.0 | 0.00 | 0.00 | 0.00 | 56 | 992.1 |
| 20260507150005 | 51 | 231 | 3.0 | 7.0 | 0.00 | 0.00 | 0.00 | 57 | 992.1 |
| 20260507145004 | 50 | 226 | 3.0 | 8.0 | 0.00 | 0.00 | 0.00 | 58 | 992.2 |
| 20260507144004 | 51 | 248 | 3.0 | 7.0 | 0.00 | 0.00 | 0.00 | 58 | 992.1 |
| 20260507143005 | 49 | 262 | 2.0 | 7.0 | 0.00 | 0.00 | 0.00 | 62 | 992.2 |
| 20260507142005 | 49 | 255 | 1.0 | 3.0 | 0.00 | 0.00 | 0.00 | 64 | 992.2 |
| 20260507141007 | 48 | 264 | 1.0 | 6.0 | 0.00 | 0.00 | 0.00 | 65 | 992.3 |
| 20260507140005 | 48 | 310 | 0.0 | 3.0 | 0.00 | 0.00 | 0.00 | 66 | 992.3 |
| 20260507135004 | 47 | 316 | 1.0 | 3.0 | 0.00 | 0.01 | 0.00 | 68 | 992.5 |
| 20260507134004 | 46 | 303 | 1.0 | 2.0 | 0.00 | 0.01 | 0.00 | 70 | 992.5 |
| 20260507133004 | 45 | 340 | 2.0 | 5.0 | 0.00 | 0.01 | 0.00 | 71 | 992.8 |
| 20260507132004 | 45 | 334 | 1.0 | 3.0 | 0.00 | 0.01 | 0.00 | 73 | 992.7 |
| 20260507131004 | 44 | 310 | 0.0 | 3.0 | 0.00 | 0.01 | 0.00 | 72 | 992.7 |
| 20260507130005 | 45 | 319 | 1.0 | 3.0 | 0.00 | 0.01 | 0.00 | 68 | 992.6 |
| 20260507125004 | 44 | 342 | 1.0 | 3.0 | 0.00 | 0.01 | 0.00 | 71 | 992.6 |
| 20260507124005 | 42 | 314 | 2.0 | 5.0 | 0.00 | 0.01 | 0.00 | 72 | 992.8 |
| 20260507123004 | 42 | 355 | 2.0 | 5.0 | 0.00 | 0.02 | 0.00 | 76 | 992.8 |
| 20260507120006 | 40 | 313 | 1.0 | 2.0 | 0.00 | 0.03 | 0.00 | 98 | 992.8 |
| 20260507115004 | 40 | 299 | 0.0 | 1.0 | 0.00 | 0.03 | 0.00 | 99 | 993.1 |
| 20260507114005 | 40 | 286 | 0.0 | 1.0 | 0.00 | 0.03 | 0.00 | 99 | 993.1 |
| 20260507113004 | 41 | 286 | 0.0 | 0.0 | 0.00 | 0.03 | 0.00 | 99 | 993.3 |
| 20260507112006 | 41 | 285 | 0.0 | 1.0 | 0.00 | 0.04 | 0.00 | 99 | 993.0 |
| 20260507111004 | 40 | 291 | 0.0 | 0.0 | 0.00 | 0.05 | 0.00 | 99 | 992.9 |
| 20260507110004 | 40 | 292 | 0.0 | 0.0 | 0.00 | 0.05 | 0.00 | 99 | 992.6 |
| 20260507105006 | 40 | 292 | 0.0 | 0.0 | 0.00 | 0.05 | 0.00 | 99 | 992.6 |
| 20260507104004 | 40 | 292 | 0.0 | 0.0 | 0.00 | 0.06 | 0.00 | 99 | 992.2 |
| 20260507103004 | 40 | 291 | 0.0 | 0.0 | 0.00 | 0.06 | 0.00 | 99 | 992.2 |
| 20260507102006 | 40 | 288 | 0.0 | 0.0 | 0.00 | 0.06 | 0.00 | 99 | 992.1 |
| 20260507101004 | 39 | 288 | 0.0 | 0.0 | 0.00 | 0.07 | 0.00 | 99 | 992.0 |
| 20260507100004 | 39 | 288 | 0.0 | 0.0 | 0.00 | 0.07 | 0.00 | 99 | 992.2 |
| 20260507094004 | 38 | 288 | 0.0 | 0.0 | 0.00 | 0.08 | 0.00 | 99 | 992.2 |
| 20260507093004 | 38 | 288 | 0.0 | 0.0 | 0.00 | 0.09 | 0.00 | 99 | 992.1 |
| 20260507092004 | 38 | 288 | 0.0 | 0.0 | 0.00 | 0.10 | 0.00 | 99 | 992.1 |
| 20260507091007 | 38 | 288 | 0.0 | 0.0 | 0.00 | 0.10 | 0.00 | 99 | 992.0 |
| 20260507090005 | 39 | 288 | 0.0 | 0.0 | 0.00 | 0.11 | 0.00 | 99 | 992.3 |
| 20260507085007 | 38 | 288 | 0.0 | 0.0 | 0.00 | 0.12 | 0.00 | 99 | 992.3 |
| 20260507083005 | 38 | 288 | 0.0 | 0.0 | 0.00 | 0.14 | 0.00 | 99 | 992.3 |
| 20260507082004 | 38 | 288 | 0.0 | 0.0 | 0.00 | 0.15 | 0.00 | 99 | 992.1 |
| 20260507080004 | 39 | 288 | 0.0 | 0.0 | 0.00 | 0.17 | 0.00 | 99 | 992.2 |
| 20260507075007 | 39 | 288 | 0.0 | 0.0 | 0.00 | 0.18 | 0.00 | 98 | 992.2 |
| 20260507074004 | 39 | 288 | 0.0 | 0.0 | 0.00 | 0.19 | 0.00 | 98 | 992.1 |
| 20260507073005 | 39 | 288 | 0.0 | 0.0 | 0.00 | 0.20 | 0.00 | 98 | 992.1 |
| 20260507072004 | 39 | 288 | 0.0 | 0.0 | 0.00 | 0.21 | 0.00 | 98 | 992.0 |
| 20260507070008 | 40 | 288 | 0.0 | 0.0 | 0.00 | 0.22 | 0.00 | 98 | 992.0 |
| 20260507065004 | 40 | 288 | 0.0 | 0.0 | 0.00 | 0.23 | 0.00 | 97 | 992.1 |
| 20260507064004 | 40 | 288 | 0.0 | 0.0 | 0.00 | 0.23 | 0.00 | 97 | 992.4 |
| 20260507063004 | 41 | 288 | 0.0 | 0.0 | 0.00 | 0.24 | 0.00 | 97 | 992.5 |
| 20260507062004 | 41 | 288 | 0.0 | 0.0 | 0.00 | 0.25 | 0.00 | 97 | 992.5 |
| 20260507061004 | 42 | 288 | 0.0 | 0.0 | 0.00 | 0.25 | 0.00 | 97 | 992.7 |
| 20260507060005 | 42 | 288 | 0.0 | 0.0 | 0.00 | 0.26 | 0.00 | 96 | 992.4 |
| 20260507055005 | 43 | 288 | 0.0 | 0.0 | 0.00 | 0.26 | 0.00 | 96 | 992.6 |
| 20260507054005 | 43 | 288 | 0.0 | 0.0 | 0.00 | 0.27 | 0.00 | 96 | 992.8 |
| 20260507053005 | 43 | 289 | 0.0 | 0.0 | 0.00 | 0.27 | 0.00 | 96 | 992.7 |
| 20260507051004 | 43 | 289 | 0.0 | 0.0 | 0.00 | 0.29 | 0.00 | 95 | 993.0 |
| 20260507045004 | 44 | 278 | 0.0 | 3.0 | 0.00 | 0.34 | 0.00 | 95 | 993.0 |
| 20260507044005 | 44 | 281 | 0.0 | 2.0 | 0.00 | 0.36 | 0.00 | 94 | 993.2 |
| 20260507043004 | 44 | 282 | 0.0 | 2.0 | 0.00 | 0.37 | 0.00 | 94 | 993.1 |
| 20260507042004 | 44 | 279 | 1.0 | 2.0 | 0.00 | 0.39 | 0.00 | 94 | 993.0 |
| 20260507041004 | 44 | 253 | 1.0 | 3.0 | 0.00 | 0.40 | 0.00 | 94 | 993.1 |
| 20260507040005 | 44 | 276 | 1.0 | 1.0 | 0.00 | 0.40 | 0.00 | 93 | 993.0 |
| 20260507035004 | 44 | 280 | 0.0 | 2.0 | 0.00 | 0.40 | 0.40 | 93 | 992.9 |
| 20260507034004 | 44 | 284 | 0.0 | 3.0 | 0.00 | 0.40 | 0.40 | 93 | 993.0 |